Flag for Poland Weather past 2 weeks in Kraków, Poland

Now
30 °F

Broken clouds.


Feels Like: 23 °F
Forecast: 18 / 23 °F
Wind: 8 mph from Northwest

Location: Krakow Airport

Current Time: Dec 26, 2014 at 1:59:47 PM

Latest Report: Dec 26, 2014 at 1:30 PM


Visibility: N/A

Pressure: 30.12 "Hg

Humidity: 86%

Dew point: 27 °F

Location of KrakówLocation

Historic Weather in Kraków — Graph

°F

Kraków temperature yesterday

Maximum temperature yesterday: 45 °F (at 12:30 AM)
Minimum temperature yesterday: 36 °F (at 6:30 PM)
Average temperature yesterday: 40 °F

Past Weeks' High & Low Weather Summary

 TemperatureHumidityPressure
High55 °F (Dec 19, 11:00 AM)100% (Dec 15, 2:30 AM)30.21 "Hg (Dec 15, 2:30 AM)
Low30 °F (Dec 26, 12:00 PM)43% (Dec 12, 7:30 PM)29.74 "Hg (Dec 12, 7:00 PM)
Average42 °F81%29.94 "Hg
* Reported Dec 11 1:00 PM — Dec 26 1:00 PM, Kraków, Weather by CustomWeather, © 2014

Note: Actual official high and low records may vary slightly from our data, if they occured in-between our weather recording intervals... More about our weather records

Advertising

Kraków weather history for previous 24 hours

 ConditionsComfort  
Time TempWeatherWind HumidityBarometerVisibility
1:00 PM
Dec 26
30 °FBroken clouds.14 mph93%30.12 "Hg5 mi
12:30 PM30 °FLight snow. Ice fog.12 mph93%30.12 "Hg3 mi
12:00 PM30 °FLight snow. Ice fog.12 mph93%30.12 "Hg1 mi
11:30 AM32 °FLight snow. Ice fog.12 mph93%30.09 "Hg2 mi
11:00 AM32 °FLight snow. Ice fog.10 mph93%30.09 "Hg2 mi
10:30 AM32 °FLight snow. Ice fog.6 mph100%30.09 "Hg2 mi
10:00 AM34 °FLight snow. Fog.9 mph93%30.07 "Hg1 mi
9:30 AM32 °FLight snow. Ice fog.9 mph100%30.07 "Hg1 mi
9:00 AM34 °FSnow showers. Fog.8 mph93%30.07 "Hg1 mi
8:30 AM34 °FLight rain. Fog.9 mph93%30.04 "Hg3 mi
8:00 AM34 °FLight snow. Fog.13 mph93%30.04 "Hg3 mi
7:30 AM36 °FLight snow. Passing clouds.12 mph81%30.04 "HgN/A
7:00 AM34 °FPassing clouds.12 mph93%30.04 "HgN/A
6:30 AM34 °FPassing clouds.7 mph93%30.04 "HgN/A
6:00 AM34 °FLight snow. Passing clouds.6 mph93%30.01 "HgN/A
5:30 AM34 °FSnow flurries. Passing clouds.5 mph93%30.04 "HgN/A
5:00 AM34 °FSnow showers. Passing clouds.8 mph87%30.04 "Hg3 mi
4:30 AM34 °FPassing clouds.5 mph87%30.01 "HgN/A
4:00 AM34 °FPassing clouds.5 mph87%30.01 "HgN/A
3:30 AM36 °FPassing clouds.6 mph81%30.04 "HgN/A
3:00 AM34 °FPassing clouds.10 mph87%30.04 "HgN/A
2:30 AM34 °FPassing clouds.10 mph87%30.01 "HgN/A
2:00 AM34 °FPassing clouds.8 mph93%30.04 "HgN/A
1:30 AM36 °FSprinkles. Passing clouds.12 mph87%30.01 "HgN/A
1:00 AM36 °FSprinkles. Passing clouds.15 mph87%30.04 "HgN/A
12:30 AM34 °FPassing clouds.12 mph87%30.04 "HgN/A
12:00 AM36 °FPassing clouds.20 mph81%30.04 "HgN/A
11:30 PM
Dec 25
36 °FPassing clouds.17 mph87%30.04 "HgN/A
11:00 PM36 °FSprinkles. Passing clouds.17 mph87%30.04 "HgN/A
10:30 PM37 °FPassing clouds.16 mph70%30.04 "HgN/A
10:00 PM37 °FPassing clouds.16 mph70%30.01 "HgN/A
9:30 PM37 °FPassing clouds.18 mph75%30.04 "HgN/A
9:00 PM37 °FPassing clouds.16 mph70%30.04 "HgN/A
8:30 PM37 °FPassing clouds.16 mph70%30.04 "HgN/A
8:00 PM37 °FPassing clouds.13 mph75%30.04 "HgN/A
7:30 PM37 °FSprinkles. Passing clouds.17 mph75%30.04 "HgN/A
7:00 PM37 °FPassing clouds.7 mph75%30.04 "HgN/A
6:30 PM36 °FPassing clouds.6 mph75%30.04 "HgN/A
6:00 PM37 °FPassing clouds.8 mph70%30.04 "HgN/A
5:30 PM37 °FPassing clouds.6 mph70%30.04 "HgN/A
5:00 PM37 °FPassing clouds.7 mph70%30.04 "HgN/A
4:30 PM37 °FPassing clouds.9 mph70%30.04 "HgN/A
4:00 PM39 °FPassing clouds.13 mph65%30.01 "HgN/A
3:30 PM41 °FPartly sunny.16 mph57%30.01 "HgN/A
3:00 PM41 °FPartly sunny.14 mph61%30.01 "HgN/A
2:30 PM41 °FPartly sunny.15 mph61%30.01 "HgN/A
2:00 PM41 °FPartly sunny.18 mph66%30.01 "HgN/A
1:30 PM41 °FPartly sunny.17 mph70%30.01 "HgN/A
1:00 PM41 °FPartly sunny.17 mph70%30.01 "HgN/A
Weather by CustomWeather, © 2014

See weather overviewHow to use our weather pages